Temp
-19 -19 -19 -19 -19 -19 -19 -19 -19 -18 -18 -18 -17 -17 -16 -16 -16 -16 -15 -15 -14 -13 -13 -12 -12 -11 -11 -11 -11 -10 -10 -8 -7 -7 -7 -7 -7 -7 -7 -7 -7 -6 -6 -6 -5 -5 -4 -4 -4 -3 -3 -3 -2 -2 -2 -1 -1 -0 -0 0 1 1 2
-19 -19 -19 -19 -19 -19 -19 -19 -19 -18 -18 -18 -17 -17 -17 -17 -16 -16 -15 -15 -14 -13 -13 -12 -12 -11 -11 -11 -10 -10 -10 -8 -7 -7 -8 -8 -7 -7 -7 -7 -7 -6 -6 -6 -6 -5 -5 -5 -4 -4 -3 -3 -2 -2 -2 -2 -1 -1 -1 -1 0 1 1
-19 -19 -19 -19 -19 -19 -19 -19 -19 -18 -18 -18 -18 -17 -17 -17 -16 -16 -15 -14 -14 -13 -13 -12 -12 -11 -10 -10 -10 -10 -10 -9 -8 -8 -8 -8 -7 -7 -7 -7 -7 -7 -6 -6 -6 -5 -5 -5 -5 -4 -4 -3 -3 -3 -2 -2 -2 -2 -1 -1 -0 0 1
-19 -19 -19 -19 -19 -19 -19 -19 -19 -19 -18 -18 -18 -17 -17 -16 -16 -16 -15 -14 -14 -14 -13 -13 -12 -11 -10 -10 -10 -10 -9 -9 -8 -8 -8 -8 -8 -7 -7 -7 -7 -7 -6 -6 -6 -5 -5 -5 -5 -5 -4 -4 -3 -3 -3 -3 -3 -2 -2 -2 -1 -1 -0
-19 -19 -19 -19 -19 -19 -19 -19 -19 -19 -19 -18 -18 -18 -17 -16 -16 -16 -15 -15 -14 -14 -13 -12 -12 -11 -10 -10 -10 -9 -9 -9 -8 -8 -8 -8 -8 -8 -7 -7 -7 -7 -7 -6 -6 -6 -6 -5 -5 -5 -5 -4 -4 -3 -3 -3 -3 -3 -3 -2 -2 -2 -1
-20 -20 -19 -19 -19 -19 -19 -19 -19 -19 -19 -18 -18 -18 -17 -17 -16 -16 -15 -15 -14 -14 -13 -12 -12 -11 -11 -10 -10 -9 -9 -9 -9 -8 -8 -8 -8 -8 -7 -7 -7 -7 -7 -6 -6 -6 -6 -5 -5 -5 -5 -5 -4 -4 -4 -3 -3 -3 -3 -3 -3 -2 -2
-19 -19 -19 -19 -19 -19 -19 -19 -19 -19 -18 -18 -18 -17 -17 -17 -16 -16 -15 -15 -14 -14 -13 -12 -12 -11 -10 -10 -10 -9 -9 -9 -8 -8 -8 -8 -8 -7 -7 -7 -7 -7 -6 -6 -6 -6 -6 -6 -6 -5 -5 -5 -4 -4 -4 -4 -4 -4 -3 -3 -3 -3 -2
-19 -19 -19 -19 -19 -19 -19 -18 -18 -18 -18 -17 -17 -17 -17 -17 -16 -16 -15 -15 -14 -13 -13 -12 -12 -11 -11 -10 -9 -9 -9 -9 -8 -8 -8 -8 -8 -7 -7 -7 -7 -7 -7 -7 -7 -6 -6 -6 -6 -6 -5 -5 -5 -5 -5 -4 -4 -4 -3 -3 -3 -3 -3
-17 -18 -18 -18 -18 -18 -18 -18 -17 -17 -17 -16 -16 -16 -16 -16 -16 -16 -15 -14 -14 -13 -12 -12 -12 -11 -11 -10 -10 -9 -9 -9 -8 -8 -8 -8 -8 -8 -8 -8 -7 -7 -7 -7 -7 -7 -6 -6 -6 -6 -6 -6 -5 -5 -4 -4 -4 -4 -4 -4 -4 -3 -3
-16 -16 -16 -16 -16 -16 -16 -16 -16 -16 -16 -16 -16 -16 -16 -16 -16 -15 -15 -14 -13 -13 -12 -12 -11 -11 -11 -10 -10 -9 -9 -9 -8 -8 -8 -8 -8 -8 -8 -8 -7 -7 -7 -7 -7 -7 -7 -7 -7 -6 -6 -6 -5 -5 -5 -5 -5 -5 -4 -4 -4 -4 -3
-15 -15 -15 -15 -15 -15 -15 -14 -14 -14 -14 -15 -15 -15 -15 -15 -15 -15 -14 -14 -13 -12 -12 -12 -11 -11 -11 -10 -10 -9 -9 -9 -9 -8 -8 -8 -8 -8 -8 -8 -7 -7 -7 -7 -7 -7 -7 -7 -7 -6 -6 -6 -6 -5 -5 -5 -5 -5 -5 -5 -4 -4 -3
-14 -14 -14 -14 -14 -13 -13 -13 -13 -13 -13 -13 -14 -14 -15 -15 -14 -14 -13 -13 -12 -12 -12 -11 -11 -11 -11 -10 -10 -10 -9 -9 -9 -9 -8 -8 -8 -8 -8 -8 -8 -8 -7 -7 -7 -7 -7 -7 -6 -6 -6 -6 -6 -6 -6 -5 -5 -5 -5 -5 -5 -4 -4
-13 -13 -13 -13 -13 -12 -12 -12 -12 -12 -12 -12 -13 -13 -14 -14 -14 -13 -12 -12 -12 -12 -11 -11 -11 -11 -10 -10 -10 -10 -10 -9 -9 -8 -8 -8 -8 -8 -8 -8 -8 -8 -8 -7 -7 -7 -7 -7 -7 -6 -6 -6 -7 -6 -6 -6 -6 -5 -5 -5 -5 -5 -4
-12 -12 -12 -12 -12 -12 -12 -12 -11 -11 -11 -12 -12 -12 -13 -13 -13 -12 -12 -11 -11 -11 -11 -11 -11 -10 -10 -10 -10 -10 -10 -9 -9 -9 -8 -8 -8 -8 -8 -8 -8 -8 -8 -7 -8 -7 -7 -7 -7 -7 -7 -7 -7 -7 -7 -6 -6 -6 -5 -5 -5 -5 -5
-12 -12 -12 -12 -12 -12 -12 -12 -11 -11 -11 -11 -11 -11 -12 -12 -12 -11 -11 -11 -11 -11 -11 -11 -11 -10 -10 -10 -10 -10 -10 -10 -9 -9 -9 -8 -8 -8 -8 -8 -8 -8 -8 -7 -7 -7 -7 -7 -7 -7 -7 -7 -7 -7 -7 -6 -6 -6 -6 -5 -5 -6 -6
-12 -12 -12 -12 -12 -12 -12 -11 -11 -11 -11 -11 -11 -11 -11 -11 -10 -10 -10 -11 -11 -11 -11 -11 -11 -10 -10 -10 -10 -10 -10 -10 -9 -9 -9 -8 -8 -8 -8 -8 -8 -8 -8 -8 -7 -7 -7 -7 -7 -7 -7 -7 -7 -7 -7 -7 -7 -7 -7 -6 -6 -6 -6
-12 -12 -12 -12 -12 -12 -12 -11 -11 -11 -11 -11 -11 -11 -11 -10 -10 -10 -10 -10 -10 -11 -11 -11 -11 -10 -10 -9 -10 -9 -9 -10 -9 -9 -9 -8 -8 -8 -8 -8 -7 -7 -8 -8 -8 -7 -7 -7 -7 -7 -7 -7 -8 -8 -7 -7 -7 -7 -7 -7 -7 -7 -6
-12 -12 -12 -12 -12 -11 -11 -11 -11 -11 -11 -10 -10 -11 -11 -10 -10 -9 -9 -9 -10 -10 -11 -11 -10 -10 -9 -9 -9 -9 -9 -9 -9 -9 -9 -8 -8 -8 -8 -8 -7 -7 -7 -8 -8 -8 -8 -7 -7 -8 -7 -7 -8 -8 -8 -7 -7 -7 -7 -7 -7 -7 -7
-12 -12 -12 -12 -11 -11 -11 -11 -11 -11 -11 -10 -10 -10 -10 -10 -10 -9 -9 -9 -10 -10 -10 -10 -10 -10 -9 -9 -9 -9 -9 -9 -9 -9 -9 -9 -8 -8 -8 -7 -7 -7 -8 -8 -8 -8 -8 -7 -8 -8 -7 -7 -8 -8 -8 -7 -7 -7 -8 -8 -8 -8 -8
-12 -12 -11 -11 -11 -11 -11 -11 -11 -11 -11 -11 -11 -11 -11 -10 -10 -9 -9 -9 -10 -10 -10 -10 -10 -9 -9 -9 -8 -8 -9 -9 -9 -9 -9 -9 -8 -8 -7 -7 -7 -7 -7 -8 -8 -8 -8 -8 -8 -8 -8 -8 -8 -8 -8 -7 -7 -7 -8 -8 -8 -8 -8
-12 -12 -11 -10 -10 -10 -10 -11 -11 -11 -11 -11 -11 -11 -11 -10 -10 -9 -10 -9 -9 -10 -10 -10 -9 -9 -9 -9 -8 -8 -8 -8 -8 -9 -9 -8 -8 -7 -7 -8 -8 -7 -7 -8 -8 -8 -8 -8 -8 -8 -8 -8 -8 -8 -8 -8 -7 -7 -8 -8 -8 -8 -8
-12 -11 -11 -10 -10 -11 -11 -11 -11 -11 -11 -11 -11 -11 -11 -10 -10 -9 -10 -10 -10 -9 -9 -9 -9 -9 -9 -9 -8 -8 -8 -8 -8 -9 -9 -8 -8 -8 -8 -9 -8 -8 -8 -8 -8 -8 -8 -8 -8 -8 -8 -8 -8 -8 -8 -8 -8 -8 -8 -8 -8 -8 -8
-12 -12 -11 -11 -11 -11 -11 -11 -11 -11 -10 -10 -10 -10 -11 -11 -10 -10 -10 -10 -10 -10 -10 -9 -9 -9 -9 -9 -9 -8 -8 -8 -8 -8 -8 -8 -8 -8 -8 -8 -8 -8 -8 -8 -8 -8 -8 -8 -8 -8 -8 -8 -8 -8 -8 -8 -8 -8 -8 -8 -9 -9 -8
-13 -12 -12 -12 -11 -11 -10 -10 -10 -10 -10 -10 -10 -10 -10 -11 -11 -11 -11 -11 -10 -10 -10 -10 -10 -9 -9 -9 -9 -9 -8 -8 -8 -8 -8 -8 -8 -8 -8 -8 -8 -8 -8 -8 -8 -8 -8 -8 -8 -8 -8 -8 -8 -8 -8 -8 -8 -8 -8 -8 -9 -9 -9
-14 -13 -13 -12 -11 -10 -10 -10 -10 -10 -10 -10 -10 -10 -10 -10 -10 -10 -11 -11 -10 -10 -10 -10 -10 -9 -9 -9 -9 -9 -9 -9 -8 -8 -8 -8 -8 -8 -8 -8 -8 -8 -8 -8 -8 -8 -8 -8 -8 -8 -8 -8 -8 -8 -8 -8 -8 -8 -8 -8 -9 -9 -9
-14 -13 -13 -12 -11 -10 -10 -10 -10 -10 -10 -10 -10 -10 -10 -10 -10 -10 -10 -10 -10 -10 -10 -10 -10 -10 -10 -10 -9 -9 -10 -10 -9 -9 -9 -9 -8 -8 -8 -8 -8 -8 -8 -8 -8 -8 -8 -8 -8 -8 -8 -8 -8 -8 -8 -8 -8 -8 -8 -8 -8 -8 -9
-14 -14 -13 -12 -11 -11 -11 -10 -10 -11 -11 -10 -10 -10 -10 -10 -10 -10 -10 -10 -10 -10 -10 -10 -10 -10 -10 -10 -10 -10 -10 -10 -10 -10 -10 -9 -9 -9 -8 -8 -8 -8 -8 -8 -8 -8 -8 -8 -9 -8 -8 -8 -8 -8 -8 -8 -8 -8 -8 -8 -8 -9 -9
-14 -14 -13 -13 -13 -12 -11 -11 -11 -11 -11 -11 -11 -11 -11 -11 -10 -10 -10 -10 -10 -10 -10 -10 -10 -10 -10 -10 -10 -10 -10 -10 -10 -10 -10 -10 -10 -9 -9 -8 -8 -8 -8 -8 -8 -8 -8 -8 -8 -8 -8 -8 -8 -8 -8 -9 -9 -9 -9 -9 -9 -9 -9
-15 -15 -14 -13 -13 -13 -13 -12 -12 -12 -12 -12 -11 -12 -12 -12 -11 -11 -11 -11 -11 -11 -11 -11 -11 -11 -11 -11 -10 -10 -10 -10 -10 -10 -10 -10 -9 -9 -9 -9 -9 -8 -8 -8 -8 -8 -8 -8 -8 -8 -8 -8 -8 -8 -9 -9 -9 -9 -9 -9 -9 -9 -9
-15 -15 -14 -13 -13 -13 -13 -13 -12 -12 -12 -11 -11 -11 -12 -12 -12 -11 -11 -11 -12 -12 -12 -12 -11 -11 -11 -11 -11 -11 -11 -10 -10 -10 -10 -10 -10 -9 -9 -9 -9 -9 -9 -8 -8 -8 -8 -8 -8 -8 -8 -9 -9 -9 -9 -9 -9 -9 -9 -9 -9 -9 -9
-14 -14 -14 -13 -13 -13 -13 -12 -12 -12 -11 -11 -11 -11 -11 -12 -12 -12 -12 -12 -12 -12 -12 -12 -12 -12 -12 -12 -12 -12 -11 -11 -11 -11 -10 -10 -10 -10 -10 -10 -9 -9 -9 -8 -8 -8 -8 -8 -8 -8 -8 -9 -8 -9 -9 -9 -9 -9 -9 -10 -10 -9 -10
-14 -14 -14 -13 -13 -13 -13 -12 -12 -12 -12 -11 -11 -12 -12 -12 -12 -12 -12 -12 -12 -12 -12 -13 -13 -13 -13 -12 -12 -12 -11 -11 -11 -11 -11 -11 -10 -10 -10 -10 -10 -10 -9 -9 -8 -8 -8 -8 -8 -8 -9 -9 -9 -9 -9 -9 -9 -9 -10 -10 -10 -10 -10
-14 -14 -14 -13 -13 -13 -13 -13 -13 -12 -12 -12 -12 -12 -12 -12 -12 -12 -12 -13 -13 -13 -13 -13 -13 -13 -13 -12 -12 -12 -12 -12 -12 -12 -11 -11 -11 -11 -11 -10 -10 -10 -10 -9 -9 -8 -8 -8 -9 -9 -9 -9 -9 -10 -10 -9 -9 -9 -10 -10 -10 -10 -10
-14 -14 -14 -14 -14 -13 -14 -13 -13 -13 -13 -13 -12 -12 -12 -13 -13 -12 -12 -13 -13 -13 -13 -13 -13 -13 -13 -13 -12 -12 -12 -12 -12 -12 -12 -12 -11 -11 -11 -11 -11 -10 -10 -10 -9 -9 -9 -9 -9 -9 -9 -9 -9 -10 -10 -10 -10 -9 -10 -10 -10 -10 -10
-14 -14 -15 -14 -14 -14 -14 -14 -13 -13 -13 -13 -13 -13 -13 -13 -13 -12 -13 -13 -13 -13 -13 -13 -13 -13 -13 -13 -13 -13 -12 -12 -12 -12 -12 -12 -12 -12 -12 -11 -11 -11 -11 -11 -10 -10 -9 -9 -9 -9 -9 -9 -9 -9 -10 -10 -10 -10 -10 -10 -10 -10 -10
-15 -15 -15 -15 -14 -14 -14 -14 -14 -14 -14 -13 -13 -13 -13 -13 -13 -13 -13 -13 -13 -13 -13 -13 -13 -13 -13 -13 -13 -13 -13 -12 -12 -12 -12 -12 -12 -12 -12 -12 -12 -12 -12 -11 -11 -11 -10 -10 -10 -10 -10 -10 -10 -10 -10 -10 -10 -10 -10 -10 -10 -10 -11
Height
1408 1407 1405 1404 1402 1400 1399 1398 1397 1397 1397 1397 1397 1397 1398 1398 1398 1398 1398 1399 1400 1401 1402 1403 1403 1404 1404 1406 1407 1407 1408 1409 1412 1413 1414 1415 1415 1416 1418 1418 1418 1417 1417 1418 1419 1419 1418 1420 1422 1422 1423 1424 1424 1424 1424 1426 1428 1431 1435 1438 1442 1446 1450
1405 1404 1402 1400 1399 1397 1396 1395 1394 1394 1394 1394 1394 1394 1394 1394 1394 1394 1394 1395 1396 1397 1398 1399 1399 1400 1401 1402 1403 1403 1404 1405 1407 1409 1409 1410 1411 1412 1413 1415 1415 1414 1414 1414 1415 1416 1415 1416 1418 1419 1420 1421 1421 1421 1421 1422 1423 1425 1428 1432 1435 1439 1443
1402 1400 1399 1397 1395 1394 1393 1392 1391 1391 1390 1390 1390 1390 1390 1390 1390 1390 1391 1392 1393 1394 1394 1394 1395 1396 1397 1398 1399 1398 1399 1401 1403 1404 1405 1405 1406 1407 1409 1411 1411 1411 1411 1411 1412 1412 1412 1412 1414 1415 1416 1418 1419 1419 1419 1419 1420 1421 1422 1425 1428 1432 1437
1399 1397 1395 1394 1392 1391 1390 1389 1388 1388 1387 1386 1386 1386 1386 1386 1386 1387 1387 1388 1389 1389 1390 1391 1392 1393 1394 1395 1395 1394 1396 1397 1398 1400 1400 1401 1402 1404 1405 1407 1408 1407 1408 1408 1408 1409 1409 1409 1410 1412 1413 1414 1415 1416 1416 1416 1417 1417 1418 1420 1423 1426 1430
1396 1394 1392 1390 1389 1387 1386 1386 1385 1384 1383 1383 1383 1382 1382 1382 1382 1383 1383 1384 1384 1385 1386 1387 1388 1389 1390 1391 1391 1391 1392 1394 1394 1395 1396 1397 1399 1400 1401 1403 1404 1404 1404 1404 1404 1406 1406 1405 1407 1408 1409 1411 1412 1413 1413 1414 1414 1414 1415 1416 1418 1420 1424
1392 1391 1389 1387 1386 1384 1383 1382 1381 1380 1380 1379 1379 1379 1378 1378 1378 1379 1379 1380 1381 1381 1382 1383 1384 1385 1386 1387 1387 1388 1389 1390 1391 1392 1393 1394 1395 1397 1397 1399 1400 1400 1401 1401 1401 1403 1403 1402 1403 1404 1405 1407 1408 1409 1410 1411 1411 1412 1412 1413 1414 1416 1418
1389 1387 1385 1383 1382 1380 1379 1378 1377 1376 1375 1375 1375 1375 1375 1375 1375 1375 1375 1376 1377 1378 1379 1380 1381 1381 1382 1383 1384 1385 1386 1387 1387 1389 1390 1390 1391 1393 1394 1395 1396 1397 1397 1398 1398 1399 1399 1399 1400 1401 1402 1403 1405 1406 1407 1408 1409 1409 1410 1411 1412 1412 1414
1385 1383 1382 1380 1378 1377 1376 1374 1373 1372 1371 1371 1371 1370 1370 1371 1371 1372 1372 1372 1373 1374 1375 1376 1377 1378 1378 1379 1380 1381 1382 1383 1384 1385 1386 1387 1388 1389 1390 1391 1393 1393 1394 1395 1395 1396 1396 1396 1397 1398 1399 1400 1401 1401 1402 1404 1406 1406 1407 1408 1409 1410 1411
1383 1380 1379 1377 1375 1374 1372 1371 1369 1368 1367 1367 1367 1366 1366 1367 1367 1368 1368 1369 1369 1370 1371 1372 1373 1374 1375 1376 1377 1378 1378 1379 1381 1382 1383 1384 1385 1386 1387 1388 1389 1391 1391 1392 1392 1393 1394 1394 1394 1394 1395 1396 1397 1398 1399 1401 1402 1403 1404 1405 1406 1407 1409
1381 1378 1376 1374 1373 1371 1370 1368 1366 1365 1364 1364 1363 1363 1363 1363 1363 1364 1364 1365 1365 1366 1367 1369 1370 1371 1372 1373 1374 1374 1375 1376 1377 1378 1380 1381 1382 1383 1384 1385 1386 1388 1388 1389 1389 1390 1391 1391 1391 1391 1392 1393 1394 1396 1397 1398 1399 1400 1401 1402 1403 1404 1406
1379 1377 1375 1373 1371 1369 1367 1366 1364 1363 1362 1362 1361 1361 1361 1360 1360 1361 1361 1362 1362 1362 1363 1365 1366 1367 1369 1370 1370 1371 1372 1373 1374 1375 1377 1378 1379 1380 1381 1382 1383 1384 1385 1386 1387 1387 1388 1388 1388 1388 1390 1391 1392 1393 1394 1395 1396 1398 1398 1399 1401 1402 1403
1377 1375 1373 1371 1369 1368 1366 1364 1363 1362 1361 1360 1359 1359 1359 1358 1358 1358 1359 1359 1359 1360 1360 1362 1363 1364 1365 1366 1367 1368 1369 1370 1371 1372 1374 1375 1376 1377 1378 1379 1380 1381 1382 1383 1384 1384 1385 1385 1385 1386 1387 1388 1389 1390 1392 1393 1394 1395 1396 1397 1398 1400 1401
1376 1374 1372 1370 1368 1366 1365 1363 1362 1361 1360 1359 1358 1358 1358 1357 1356 1356 1356 1356 1357 1357 1357 1358 1360 1361 1362 1363 1365 1366 1366 1367 1368 1369 1371 1372 1373 1374 1375 1376 1377 1378 1379 1380 1381 1381 1382 1383 1383 1384 1384 1385 1387 1389 1389 1390 1391 1392 1393 1394 1396 1397 1399
1375 1373 1371 1369 1367 1365 1364 1362 1361 1360 1359 1358 1357 1357 1357 1356 1354 1353 1353 1353 1353 1354 1354 1355 1356 1358 1359 1361 1362 1363 1364 1365 1366 1367 1369 1370 1371 1371 1372 1373 1374 1375 1376 1377 1378 1379 1379 1380 1381 1382 1383 1384 1385 1386 1387 1388 1388 1390 1391 1392 1394 1395 1397
1374 1372 1370 1368 1366 1364 1363 1361 1360 1359 1357 1357 1356 1355 1355 1354 1352 1350 1349 1349 1349 1350 1350 1351 1352 1354 1356 1357 1359 1360 1362 1363 1364 1365 1366 1367 1368 1368 1369 1370 1371 1372 1373 1374 1375 1375 1377 1378 1379 1380 1382 1382 1383 1384 1385 1386 1386 1388 1389 1390 1391 1392 1394
1373 1371 1369 1367 1365 1363 1361 1360 1359 1357 1356 1355 1354 1354 1353 1352 1350 1348 1346 1345 1345 1346 1346 1347 1348 1350 1352 1354 1355 1357 1359 1361 1362 1363 1363 1364 1365 1366 1366 1367 1368 1369 1370 1371 1372 1373 1374 1376 1377 1378 1380 1380 1381 1382 1383 1383 1384 1385 1387 1388 1388 1389 1390
1373 1370 1368 1366 1364 1361 1359 1358 1357 1355 1354 1353 1352 1351 1351 1350 1348 1346 1344 1342 1342 1343 1343 1344 1344 1346 1348 1350 1352 1354 1357 1358 1359 1360 1361 1362 1362 1363 1364 1364 1365 1366 1367 1368 1369 1370 1371 1373 1374 1376 1377 1378 1378 1379 1380 1381 1381 1382 1383 1385 1385 1386 1387
1372 1369 1367 1364 1362 1360 1358 1356 1355 1353 1352 1351 1350 1349 1348 1347 1346 1345 1343 1341 1340 1340 1341 1341 1342 1343 1345 1347 1349 1352 1354 1356 1357 1357 1358 1359 1360 1360 1360 1361 1362 1363 1364 1365 1366 1367 1369 1370 1371 1372 1373 1374 1375 1376 1377 1378 1378 1379 1381 1382 1383 1384 1385
1370 1368 1366 1363 1361 1359 1357 1354 1352 1351 1349 1348 1347 1347 1346 1345 1344 1343 1342 1341 1339 1339 1339 1340 1340 1341 1343 1345 1347 1349 1351 1353 1354 1355 1355 1356 1357 1357 1356 1358 1360 1361 1361 1362 1363 1364 1365 1367 1368 1369 1370 1371 1372 1373 1374 1375 1376 1377 1378 1379 1381 1382 1383
1369 1366 1364 1361 1359 1357 1355 1352 1350 1348 1347 1346 1345 1344 1343 1342 1342 1342 1341 1340 1339 1338 1338 1338 1339 1340 1341 1343 1345 1346 1348 1350 1351 1352 1353 1353 1353 1353 1353 1355 1357 1358 1359 1360 1360 1361 1363 1364 1365 1366 1367 1368 1369 1370 1371 1372 1373 1374 1374 1376 1378 1379 1379
1368 1365 1362 1360 1357 1355 1352 1350 1348 1346 1345 1343 1342 1342 1341 1340 1340 1340 1340 1340 1339 1339 1338 1337 1338 1338 1339 1341 1342 1344 1345 1347 1348 1349 1350 1350 1349 1349 1350 1352 1354 1355 1356 1357 1358 1359 1360 1361 1362 1363 1364 1365 1366 1368 1369 1370 1371 1371 1372 1374 1375 1376 1376
1366 1363 1360 1358 1356 1353 1351 1349 1347 1345 1344 1342 1341 1340 1339 1338 1337 1338 1338 1339 1338 1338 1338 1337 1337 1337 1338 1339 1340 1341 1342 1344 1345 1346 1346 1346 1345 1346 1348 1350 1351 1352 1353 1354 1355 1356 1357 1358 1359 1360 1361 1362 1364 1365 1367 1368 1369 1370 1371 1372 1373 1374 1375
1365 1362 1360 1357 1355 1353 1350 1348 1346 1345 1343 1342 1340 1339 1338 1337 1335 1336 1336 1337 1337 1337 1337 1336 1336 1336 1336 1337 1338 1339 1340 1341 1342 1343 1343 1343 1344 1345 1346 1347 1348 1350 1351 1351 1352 1353 1354 1355 1356 1357 1358 1360 1361 1363 1365 1366 1367 1368 1369 1370 1371 1373 1374
1364 1362 1360 1358 1355 1352 1350 1348 1346 1345 1343 1341 1340 1338 1337 1336 1334 1334 1335 1335 1335 1335 1335 1334 1334 1334 1334 1335 1335 1336 1337 1338 1338 1339 1340 1340 1341 1343 1344 1345 1345 1346 1347 1348 1349 1350 1351 1352 1354 1355 1356 1357 1359 1361 1363 1364 1365 1367 1368 1369 1370 1372 1373
1365 1363 1361 1358 1354 1352 1350 1348 1346 1345 1343 1341 1339 1338 1337 1336 1335 1334 1334 1334 1334 1334 1333 1332 1332 1332 1332 1332 1333 1333 1334 1335 1335 1336 1337 1337 1338 1339 1340 1341 1342 1343 1344 1345 1346 1347 1348 1349 1351 1352 1354 1355 1357 1359 1361 1362 1364 1365 1366 1367 1369 1370 1372
1366 1364 1362 1358 1355 1352 1351 1349 1347 1345 1343 1341 1340 1338 1337 1336 1335 1334 1334 1333 1333 1332 1332 1331 1331 1331 1331 1331 1331 1331 1331 1332 1332 1333 1333 1334 1335 1336 1337 1338 1339 1340 1341 1342 1343 1345 1346 1348 1349 1350 1351 1353 1355 1357 1358 1360 1362 1363 1365 1366 1367 1369 1370
1367 1364 1362 1359 1356 1353 1352 1350 1348 1346 1344 1342 1340 1339 1337 1336 1335 1334 1333 1333 1332 1331 1330 1330 1330 1330 1329 1329 1329 1329 1329 1329 1329 1330 1330 1331 1332 1333 1334 1335 1336 1337 1338 1339 1341 1342 1344 1345 1346 1347 1349 1351 1353 1355 1356 1358 1360 1361 1363 1364 1366 1367 1369
1367 1365 1363 1360 1357 1355 1353 1351 1349 1347 1345 1343 1341 1339 1338 1336 1335 1334 1333 1332 1331 1330 1329 1329 1329 1328 1328 1328 1328 1328 1328 1328 1328 1328 1328 1328 1328 1329 1330 1331 1333 1334 1335 1336 1338 1339 1341 1342 1343 1345 1347 1349 1351 1353 1354 1356 1358 1359 1361 1363 1364 1365 1367
1368 1365 1363 1361 1358 1356 1354 1351 1350 1348 1346 1344 1342 1340 1338 1337 1335 1333 1332 1331 1330 1329 1328 1328 1328 1327 1327 1327 1327 1327 1327 1326 1326 1326 1325 1325 1325 1325 1326 1328 1329 1330 1331 1333 1335 1336 1338 1339 1340 1342 1345 1346 1348 1350 1352 1354 1356 1357 1359 1361 1362 1364 1365
1368 1365 1363 1361 1358 1357 1355 1352 1350 1348 1346 1344 1342 1340 1339 1337 1335 1333 1332 1331 1330 1329 1328 1327 1327 1327 1326 1326 1326 1325 1325 1325 1324 1324 1324 1323 1323 1323 1323 1324 1325 1327 1328 1330 1331 1333 1334 1336 1338 1339 1341 1343 1345 1348 1350 1352 1354 1355 1357 1359 1360 1362 1364
1366 1364 1362 1360 1357 1355 1354 1352 1349 1347 1345 1344 1342 1340 1339 1337 1335 1333 1332 1330 1329 1328 1327 1327 1326 1326 1325 1325 1325 1324 1324 1324 1323 1323 1322 1322 1321 1321 1321 1321 1322 1324 1325 1327 1328 1329 1332 1334 1335 1337 1339 1340 1342 1345 1347 1349 1352 1354 1355 1357 1359 1360 1362
1365 1363 1360 1358 1356 1354 1352 1350 1348 1346 1345 1343 1342 1340 1338 1337 1335 1334 1332 1330 1329 1328 1327 1326 1326 1325 1325 1324 1324 1324 1323 1323 1323 1322 1322 1321 1321 1320 1319 1319 1320 1321 1322 1324 1325 1327 1329 1331 1333 1335 1337 1338 1340 1343 1345 1347 1349 1351 1353 1355 1357 1359 1361
1363 1361 1359 1357 1355 1353 1351 1349 1348 1346 1344 1343 1342 1340 1338 1337 1335 1334 1332 1331 1329 1328 1327 1327 1326 1326 1325 1325 1324 1324 1323 1323 1323 1322 1321 1321 1320 1320 1319 1318 1318 1319 1320 1321 1322 1324 1326 1328 1330 1333 1335 1336 1338 1340 1342 1345 1347 1349 1351 1353 1355 1357 1359
1362 1360 1357 1355 1353 1352 1350 1349 1347 1345 1344 1343 1341 1340 1338 1337 1336 1334 1333 1331 1330 1329 1329 1328 1327 1327 1326 1325 1324 1324 1324 1323 1323 1322 1322 1321 1320 1320 1319 1319 1318 1318 1318 1319 1321 1322 1324 1326 1328 1330 1332 1334 1336 1338 1340 1343 1345 1347 1349 1351 1353 1355 1357
1361 1358 1356 1355 1352 1351 1349 1348 1346 1345 1343 1342 1341 1340 1339 1337 1336 1335 1334 1332 1331 1331 1330 1329 1328 1328 1327 1326 1326 1325 1325 1324 1323 1322 1322 1321 1321 1320 1320 1319 1319 1318 1318 1319 1320 1321 1322 1324 1326 1328 1330 1332 1334 1336 1338 1340 1342 1344 1346 1349 1351 1354 1356
1361 1359 1357 1355 1353 1351 1349 1347 1346 1345 1343 1342 1341 1340 1339 1338 1336 1335 1335 1334 1332 1332 1331 1330 1330 1329 1328 1328 1327 1326 1325 1325 1324 1323 1322 1322 1321 1320 1320 1319 1319 1319 1319 1319 1319 1320 1322 1323 1325 1327 1328 1330 1332 1334 1336 1338 1339 1342 1344 1347 1349 1352 1355
Wind_Speed
22 22 22 22 22 22 23 23 22 22 23 25 26 26 27 26 26 28 28 29 28 25 24 25 26 28 29 28 29 31 35 40 39 36 35 35 38 42 40 35 37 39 38 34 31 32 36 35 34 33 29 27 29 31 32 38 49 58 61 62 62 62 59
21 20 21 21 21 21 22 21 20 20 21 23 24 25 25 25 26 27 27 28 27 24 25 27 26 27 29 29 29 31 33 38 40 36 35 37 39 43 42 35 35 39 40 38 35 35 37 37 35 36 34 30 28 30 31 32 37 48 57 61 62 62 61
21 21 20 20 20 20 21 21 20 19 20 21 22 23 24 24 24 23 23 23 23 23 26 29 27 25 27 28 29 31 32 34 38 38 37 38 39 41 42 36 33 37 39 39 39 36 35 36 35 34 35 34 30 28 29 30 30 35 46 56 62 62 62
20 20 20 20 20 20 20 20 20 21 22 22 23 23 22 23 24 23 22 22 23 26 29 29 28 24 23 26 29 32 32 32 34 37 37 38 38 37 38 36 34 37 38 39 40 37 34 35 34 32 32 34 33 30 27 27 28 29 33 43 55 61 62
21 20 20 20 20 20 21 20 20 21 21 22 24 25 25 25 27 28 27 27 28 31 31 29 27 25 23 25 30 33 32 31 33 36 36 37 36 32 33 34 34 35 36 37 39 35 32 33 33 32 32 32 32 32 29 26 27 28 28 30 40 52 60
22 22 22 21 21 22 22 22 22 22 22 23 23 26 29 29 29 30 31 31 31 32 31 27 25 26 26 27 30 33 33 32 34 34 33 34 33 31 32 33 34 34 33 34 36 34 32 32 31 30 32 33 32 31 30 28 27 27 27 27 29 37 49
21 21 22 22 22 23 23 23 23 24 25 25 26 29 32 33 33 32 32 32 32 32 31 28 25 25 27 28 28 29 32 33 33 33 32 32 33 33 33 32 32 33 32 31 32 32 31 32 33 31 30 32 32 30 29 29 28 27 27 27 27 28 35
20 20 20 21 21 21 22 22 23 24 25 25 27 30 33 35 35 35 34 33 33 33 31 28 25 24 25 27 27 26 28 32 33 34 33 30 29 29 30 31 31 31 31 31 30 30 29 30 32 32 29 28 29 30 30 29 29 29 27 27 28 28 28
17 18 18 18 18 19 19 21 22 22 22 22 23 25 28 31 32 34 36 35 34 35 33 29 26 25 24 27 29 27 26 28 30 31 30 27 27 26 27 30 32 29 28 28 27 27 28 27 28 30 30 29 29 30 30 30 30 30 29 28 28 29 29
16 17 17 17 16 16 17 19 19 19 18 19 19 20 22 25 27 31 35 36 36 36 35 31 28 26 24 25 28 28 27 27 27 28 28 26 27 27 26 29 32 28 26 24 22 24 25 25 28 31 31 30 30 29 28 28 29 30 30 30 29 28 29
17 16 15 16 15 15 15 15 14 14 14 15 15 16 19 20 22 27 33 36 37 37 36 33 30 27 24 23 24 26 28 26 24 25 27 27 27 27 27 28 29 27 26 24 22 22 24 25 28 31 31 30 30 29 28 27 27 28 30 31 31 31 30
16 16 15 15 15 15 14 12 10 9 10 12 12 14 17 19 19 23 30 35 37 37 37 35 33 30 26 23 22 24 25 24 23 23 26 26 25 25 26 27 27 27 27 26 23 22 23 24 25 27 29 30 29 28 29 29 27 27 28 30 32 33 33
17 16 15 15 15 15 14 11 8 8 9 9 10 12 16 20 20 21 27 33 37 38 38 37 35 33 30 25 23 23 23 23 23 23 24 24 23 24 24 25 26 27 28 27 25 23 22 22 22 22 25 28 28 27 28 29 30 29 27 28 30 32 33
18 17 15 15 14 14 14 12 10 9 8 8 8 9 13 18 20 21 22 26 32 37 40 40 38 36 34 29 24 23 23 23 23 23 23 22 23 24 24 25 25 26 27 28 27 25 23 22 21 20 20 23 25 24 25 26 28 29 30 30 29 29 31
19 17 15 15 14 14 15 14 12 11 10 9 9 11 16 20 23 24 24 24 25 28 33 39 41 39 36 33 28 24 23 24 23 23 23 23 23 24 25 25 26 27 27 29 29 29 26 24 23 21 19 19 21 22 22 22 23 25 27 29 29 29 30
19 18 16 15 15 15 16 16 15 14 13 13 12 12 15 19 22 25 28 28 27 25 25 30 37 40 38 35 32 26 24 24 25 25 25 26 25 25 25 26 26 27 29 30 31 31 29 27 26 24 20 18 19 19 19 20 22 24 25 27 29 29 30
19 18 17 16 15 15 16 16 17 16 15 14 13 11 13 15 18 20 22 24 26 27 24 23 29 36 38 36 34 29 25 24 25 25 26 28 29 28 28 28 27 27 29 30 32 32 31 28 27 25 23 20 18 18 19 20 23 26 26 27 28 29 30
20 18 17 17 14 13 15 16 16 17 16 14 12 12 14 16 16 15 16 17 20 24 24 20 20 29 36 36 33 29 26 25 25 25 26 28 30 31 32 31 29 29 29 29 30 31 29 28 27 26 24 22 18 18 20 21 22 24 26 29 30 30 30
22 20 18 16 13 13 16 15 14 14 15 14 12 12 14 16 15 15 16 15 15 18 21 18 15 20 30 35 33 30 27 26 26 26 27 28 30 32 34 33 30 30 30 29 28 28 28 27 27 26 24 22 19 18 20 21 21 21 24 28 29 29 29
22 22 20 17 15 16 17 14 12 14 15 14 12 12 13 15 15 14 14 13 11 13 16 17 13 14 22 30 33 32 29 28 28 28 29 30 32 34 35 33 31 30 30 29 26 26 26 26 27 27 26 23 19 19 20 20 20 21 22 24 26 27 30
22 22 21 20 22 21 17 13 13 15 14 12 10 10 11 14 15 14 13 13 12 11 11 13 12 11 15 23 29 31 31 29 28 28 29 31 34 34 32 30 29 29 30 29 28 27 26 25 25 26 28 25 21 20 20 19 20 21 21 21 23 26 29
23 24 24 25 26 22 16 14 13 13 12 9 8 9 10 12 15 15 14 14 15 13 12 12 12 11 12 15 21 25 28 27 25 25 26 27 28 28 26 25 25 26 27 28 28 28 28 27 25 26 29 26 22 21 21 20 19 20 20 20 21 23 24
25 27 28 29 28 22 16 15 14 12 10 9 9 11 10 10 12 14 15 13 13 14 14 13 15 16 15 15 17 19 22 23 23 23 24 26 26 26 25 24 24 24 25 24 23 24 26 25 24 26 28 26 22 21 21 21 20 19 20 20 20 20 19
27 27 28 30 29 22 16 15 14 12 10 10 11 10 8 8 8 7 11 11 11 12 13 14 17 19 18 17 18 20 21 22 23 24 25 25 25 25 25 24 24 24 25 24 23 23 23 22 23 26 27 26 25 23 22 22 22 20 18 19 19 18 17
25 24 26 30 29 22 16 15 16 15 14 11 8 6 6 8 7 4 5 7 9 11 12 13 14 15 15 16 18 20 21 23 25 26 27 27 25 24 23 24 25 25 24 25 26 25 24 22 22 24 27 27 25 21 20 22 24 22 19 19 18 17 16
23 22 24 26 26 21 16 16 17 17 17 14 9 6 6 6 5 5 5 5 7 9 10 9 9 10 11 13 14 15 16 19 21 23 25 27 27 27 25 24 24 26 27 28 27 27 26 23 21 23 26 24 20 18 20 22 24 24 23 21 20 19 18
20 21 22 23 24 23 19 16 16 17 17 17 16 13 11 8 6 6 5 6 7 8 9 9 8 8 9 10 11 12 14 16 18 20 22 24 25 27 28 26 24 26 29 30 29 28 27 24 23 25 25 22 19 20 21 22 24 26 25 24 23 21 20
18 18 19 19 21 23 20 18 16 16 16 16 16 16 15 13 10 8 6 7 7 8 8 9 9 9 9 9 10 10 11 12 14 16 19 21 23 25 28 29 26 25 27 30 30 29 26 24 25 27 25 23 22 23 22 22 24 25 25 25 24 22 21
14 14 15 15 17 19 19 18 15 13 13 14 13 13 13 13 12 10 9 7 6 5 4 5 6 6 7 8 9 9 9 10 11 12 12 15 18 21 25 28 28 26 25 28 30 29 27 26 27 28 26 25 25 24 24 24 25 24 24 24 24 23 22
9 9 10 10 11 13 14 14 14 13 12 13 14 14 12 11 11 11 9 7 4 3 4 5 6 6 7 8 8 9 9 10 11 11 9 9 11 14 18 23 27 27 25 26 28 30 29 28 28 28 27 26 26 25 25 26 25 23 23 23 24 24 24
7 7 7 7 9 11 11 11 12 13 13 13 15 15 14 12 11 10 8 6 5 5 6 6 4 4 4 5 5 6 7 7 7 8 8 9 8 9 11 17 23 26 26 26 28 29 30 30 30 29 27 27 27 27 27 27 26 24 23 23 23 23 23
9 8 8 7 7 8 10 10 11 12 12 13 14 15 14 13 12 10 7 6 6 5 4 1 1 1 1 1 1 2 2 2 3 3 3 4 5 5 7 11 18 24 26 27 28 29 29 30 31 30 29 28 28 29 29 29 28 27 25 24 22 21 20
8 9 8 7 6 6 7 8 9 9 11 13 14 15 15 13 10 9 7 5 4 4 4 5 5 4 4 5 5 4 4 4 3 3 4 4 3 3 2 5 11 18 22 25 27 28 29 30 30 30 30 29 30 30 30 30 30 30 29 27 24 22 22
9 8 8 7 6 6 6 8 8 8 10 11 12 14 13 11 8 8 6 4 4 6 6 6 7 7 8 8 8 7 5 5 4 4 5 5 4 4 3 2 4 9 15 20 24 27 28 29 29 30 30 30 30 30 30 30 30 32 33 31 26 24 24
13 10 9 8 7 7 7 9 9 8 9 10 10 10 9 8 6 6 6 6 8 8 7 7 9 10 9 9 7 6 5 5 5 5 5 5 5 4 4 2 1 3 7 11 17 23 26 27 28 30 31 31 31 31 31 32 32 33 34 33 28 24 24
16 12 9 8 8 8 9 10 10 9 9 9 8 8 7 7 6 6 6 6 8 8 7 8 7 7 7 6 6 5 6 6 6 6 6 6 5 5 4 4 3 3 5 6 8 13 18 21 24 27 29 30 30 30 30 32 33 33 33 32 29 25 23
Wind_Direction
282 280 279 277 275 274 272 270 269 265 259 255 255 256 257 257 256 254 255 256 253 252 255 255 257 255 253 252 247 245 245 240 238 244 247 246 247 247 249 253 255 256 258 257 254 254 257 258 257 258 260 258 251 248 247 241 234 230 229 227 224 222 223
283 280 278 277 275 274 272 271 269 265 259 256 255 255 256 255 255 254 255 254 250 250 250 247 254 260 255 250 247 245 244 239 238 242 247 248 246 245 246 250 253 254 255 255 254 254 255 256 256 256 256 258 256 251 249 246 239 233 231 229 226 223 221
283 281 278 276 275 273 271 270 268 264 260 256 255 257 257 255 253 253 252 249 246 247 245 244 251 260 255 249 246 246 244 240 240 243 246 249 246 243 245 247 248 251 254 253 253 254 255 254 255 255 253 254 257 256 251 247 244 238 233 230 228 224 221
283 281 278 275 273 271 270 267 265 264 261 258 256 254 251 247 246 244 241 242 244 244 244 247 251 252 250 249 247 245 243 242 244 245 246 248 246 244 247 245 245 251 253 250 250 252 254 253 251 252 251 249 251 254 253 247 242 241 236 231 229 227 223
284 281 278 275 272 270 269 268 265 264 262 259 256 251 245 242 241 239 237 240 243 242 244 249 251 246 245 249 246 242 242 244 247 246 247 249 246 244 245 243 244 250 250 247 247 247 251 253 250 248 248 245 244 247 250 247 241 238 236 232 231 230 226
285 281 277 274 272 270 269 267 265 263 262 260 255 250 246 245 243 241 241 243 243 243 244 248 249 245 244 246 245 242 242 244 247 247 247 249 244 239 241 242 243 247 247 245 245 245 247 250 249 247 246 243 241 241 243 244 242 239 235 232 230 230 228
293 288 283 277 274 273 272 270 268 266 265 262 256 251 247 246 244 243 244 245 244 244 245 246 247 244 240 240 242 244 245 245 246 246 247 248 243 237 239 240 243 247 247 242 242 243 245 247 248 246 244 242 241 240 239 240 240 240 238 234 231 228 227
308 301 294 288 284 283 281 278 275 274 271 267 261 255 251 249 246 243 243 244 244 244 244 245 246 243 237 236 239 244 248 246 244 247 249 245 237 235 237 239 243 248 244 237 236 240 243 246 248 245 240 238 237 237 236 235 236 238 239 239 236 231 226
318 313 307 303 297 293 290 285 282 281 279 275 269 261 256 254 249 244 242 243 244 245 244 244 246 244 239 238 240 242 246 247 244 245 245 237 232 234 235 237 242 243 238 234 235 238 242 246 247 244 239 236 235 235 235 235 235 235 235 237 239 237 232
330 325 320 317 312 307 301 295 291 290 286 281 276 270 263 258 252 245 242 242 244 246 246 246 246 244 240 239 240 241 242 244 244 241 236 233 237 240 236 237 240 237 232 232 234 237 239 241 243 244 241 239 238 237 237 238 237 236 235 234 236 238 236
341 337 333 329 325 321 316 309 306 301 291 283 277 272 268 263 254 245 242 243 245 247 248 247 246 247 245 241 241 243 241 239 240 235 230 233 240 242 240 239 236 231 232 235 235 236 237 237 240 243 242 240 240 238 239 241 240 239 239 236 235 235 235
348 347 344 338 333 332 331 327 322 310 296 286 275 266 266 267 260 247 242 243 245 248 250 249 248 250 251 248 244 243 237 231 228 227 226 232 239 241 242 242 237 236 239 239 235 235 236 235 238 242 242 239 238 238 239 240 240 240 241 240 239 236 235
354 353 352 345 339 339 339 337 329 313 301 290 277 261 256 260 263 255 246 243 244 247 250 251 250 249 249 247 244 241 233 223 219 221 225 231 238 239 240 241 240 241 242 241 237 235 235 235 237 242 245 244 241 240 241 240 239 239 240 241 241 239 239
354 352 353 349 344 341 341 340 331 315 302 287 281 275 262 259 262 261 255 249 246 246 247 248 249 248 246 244 243 240 233 224 219 221 226 232 237 241 242 242 241 241 240 240 238 237 240 242 240 242 249 251 249 248 249 247 242 241 242 243 242 241 242
353 351 348 344 339 335 334 335 333 322 310 293 284 289 286 277 274 272 268 263 256 251 247 246 246 246 244 241 242 240 233 227 225 225 229 233 237 242 245 245 245 244 242 241 238 237 240 244 245 248 253 256 254 252 253 253 249 247 247 247 246 245 244
355 351 347 342 337 330 325 327 328 322 316 304 289 284 286 286 288 286 280 273 266 260 255 248 243 242 241 239 239 238 233 231 231 231 232 236 239 244 248 249 248 247 246 245 243 242 242 242 246 252 256 257 255 251 251 251 249 246 245 245 245 245 243
352 350 347 343 340 333 326 326 325 319 314 308 296 287 285 287 295 300 295 284 272 264 262 258 246 238 237 238 237 236 233 232 234 236 237 239 242 246 250 252 251 249 248 247 246 246 244 241 243 250 255 257 255 249 246 247 245 242 239 238 238 240 240
348 348 348 342 337 332 327 325 323 318 313 306 295 286 281 282 290 306 312 302 282 267 263 266 254 238 234 235 237 237 235 234 237 241 242 244 248 250 252 253 253 251 250 250 249 247 245 240 239 245 250 254 255 250 243 243 245 244 239 234 233 234 236
348 347 349 349 341 333 333 331 322 314 310 303 292 279 273 274 281 296 307 310 298 277 268 270 263 242 235 235 236 237 237 236 239 242 244 249 253 253 253 254 254 252 250 251 250 246 244 241 238 240 246 250 251 249 243 241 245 247 241 236 233 229 228
350 349 353 358 351 344 345 341 323 311 311 308 298 284 272 266 267 276 288 299 304 288 274 275 275 250 237 236 238 239 240 240 241 244 247 251 253 254 255 256 254 251 248 248 247 243 244 246 243 241 243 245 244 245 243 240 241 243 242 239 236 231 230
353 354 358 2 359 355 354 345 326 319 323 322 312 300 282 263 254 253 263 277 287 283 269 269 273 260 239 235 238 241 243 244 244 244 246 250 252 254 255 254 251 247 244 245 246 244 244 246 246 244 242 239 239 243 245 242 238 237 236 236 237 237 238
358 2 4 4 3 1 355 344 334 331 335 342 340 333 316 283 257 242 243 260 275 277 270 263 261 261 249 237 235 237 239 240 238 237 239 245 250 252 253 250 247 244 243 245 247 245 241 240 243 242 237 234 238 244 247 246 240 233 229 229 231 236 240
4 6 3 1 3 4 359 353 348 343 343 344 339 335 329 310 278 248 239 251 265 269 269 265 259 258 254 245 237 234 233 233 234 234 237 240 244 249 251 249 247 244 242 241 242 240 238 237 236 232 228 231 238 243 246 248 242 231 223 222 223 226 229
6 3 356 357 3 6 6 5 1 353 349 342 337 341 346 339 319 267 245 253 265 268 266 261 257 256 253 247 241 236 233 232 232 236 240 241 241 244 245 244 244 243 240 235 233 234 236 235 228 224 226 232 236 238 243 246 242 233 224 220 220 221 221
359 354 352 359 8 11 13 16 13 6 1 356 353 6 9 360 356 336 281 268 272 275 271 263 258 256 253 248 244 241 239 238 236 238 240 241 240 240 241 241 239 239 238 235 234 235 237 234 228 227 231 232 232 237 242 238 234 233 228 222 221 223 223
349 348 354 6 17 22 22 19 15 12 12 11 10 10 356 343 341 337 319 292 278 278 276 270 262 257 255 253 250 248 247 246 244 243 242 240 238 236 238 239 238 237 237 236 235 236 237 234 230 229 229 228 230 238 238 231 230 232 229 226 226 227 224
346 349 355 7 20 25 24 21 15 12 11 8 4 0 355 345 331 315 304 297 289 282 275 272 265 258 257 256 253 250 249 249 248 248 248 247 243 237 235 235 237 240 240 239 238 237 234 231 227 224 222 221 226 232 232 231 231 230 226 226 228 226 222
346 350 351 2 16 16 16 22 22 15 11 7 2 359 357 356 351 340 323 305 290 276 268 265 257 250 248 248 246 245 247 250 251 251 251 251 249 244 238 235 235 238 241 241 240 235 229 226 225 223 220 220 223 227 228 229 228 225 225 227 226 223 219
348 351 344 354 13 12 9 11 6 357 357 359 357 355 354 353 352 348 337 318 295 277 267 256 246 241 242 244 245 245 248 256 262 262 259 254 249 247 242 237 235 236 238 239 237 231 225 224 225 224 222 222 222 222 222 224 224 224 226 225 223 221 220
343 350 335 338 0 6 5 360 346 340 348 353 351 350 351 353 353 348 337 325 310 290 277 266 255 250 251 253 256 257 258 263 267 268 270 267 259 251 244 237 234 232 234 236 235 230 228 227 225 222 220 219 219 218 218 220 222 222 221 219 219 219 219
324 331 326 323 336 344 346 345 344 350 360 360 353 350 353 360 0 351 338 331 323 297 278 268 252 248 260 266 265 265 267 270 274 273 270 269 270 266 253 241 233 228 228 229 230 230 231 230 228 224 221 219 219 218 215 216 219 219 216 215 216 218 218
320 320 325 323 326 331 332 338 350 359 2 1 357 353 355 2 0 349 337 325 320 315 302 289 101 65 1 337 281 269 277 290 302 310 298 285 280 274 259 242 233 227 224 223 224 227 229 229 228 228 225 223 222 220 216 216 218 218 217 214 214 215 218
333 324 326 328 330 332 332 338 350 357 1 3 359 353 356 2 359 351 340 325 331 18 52 66 69 67 66 72 78 80 72 63 53 48 41 27 6 342 299 242 228 223 220 219 221 224 227 227 226 225 224 225 225 223 221 221 220 219 218 216 214 215 217
353 340 338 342 344 345 345 345 349 359 6 4 356 353 356 357 354 353 353 3 56 72 73 74 76 79 79 77 77 75 68 58 51 43 32 26 21 10 0 331 221 213 215 216 217 219 223 225 226 224 224 226 227 225 224 223 222 222 222 219 216 217 219
5 2 1 5 6 7 3 356 353 3 9 2 355 356 355 349 355 13 30 62 82 83 80 78 78 76 74 73 71 62 47 34 29 20 8 2 357 347 338 326 242 181 192 205 212 216 219 222 224 224 225 226 228 227 225 222 222 224 223 219 217 221 220
6 11 18 24 26 28 23 9 357 359 4 359 353 354 356 3 27 46 56 69 78 78 76 74 71 65 60 50 32 16 2 351 349 347 343 342 340 333 321 302 262 184 161 169 189 204 212 217 221 223 224 225 226 226 225 224 223 222 220 217 217 219 215